When you browse on this site, cookies collect data to enhance your experience and personalize the content and advertising you see.
Visit our Privacy Policy to learn more. By continuing to use the site, you agree to this use of cookies and data.
  • In Switzerland
  • List of Countries
  • For 7 days
  • Water Temperature
  • Satellite Maps
  • Weather Map
  • Weather Widgets
  • user-avatar
    Login

    Hourly Weather Plai

    Today, 21 February, Thursday

    Time Temperature Precipitation Wind Pressure Humidity
    00:00 -1°C° 0 mm 1 mps 684 mmHg 92%
    01:00 -1°C° 0 mm 1 mps 684 mmHg 92%
    02:00 -1°C° 0 mm 1 mps 685 mmHg 92%
    03:00 -1°C° 0 mm 1 mps 685 mmHg 93%
    04:00 -2°C° 0 mm 1 mps 685 mmHg 93%
    05:00 -2°C° 0 mm 1 mps 685 mmHg 93%
    06:00 -2°C° 0 mm 1 mps 685 mmHg 93%
    07:00 -2°C° 0 mm 1 mps 685 mmHg 93%
    08:00 -2°C° 0 mm 1 mps 685 mmHg 92%
    09:00 -3°C° 0 mm 2 mps 686 mmHg 87%
    10:00 -1°C° 0 mm 2 mps 686 mmHg 81%
    11:00 +1°C° 0 mm 2 mps 687 mmHg 75%
    12:00 +1°C° 0 mm 3 mps 687 mmHg 74%
    13:00 +1°C° 0 mm 3 mps 687 mmHg 74%
    14:00 +1°C° 0 mm 3 mps 686 mmHg 73%
    15:00 +2°C° 0 mm 2 mps 686 mmHg 76%
    16:00 +1°C° 0 mm 2 mps 686 mmHg 79%
    17:00 +1°C° 0 mm 2 mps 686 mmHg 83%
    18:00 -1°C° 0 mm 2 mps 685 mmHg 86%
    19:00 -2°C° 0 mm 2 mps 685 mmHg 88%
    20:00 -2°C° 0 mm 2 mps 685 mmHg 91%
    21:00 -2°C° 0 mm 2 mps 685 mmHg 90%
    22:00 -2°C° 0 mm 2 mps 685 mmHg 90%
    23:00 -2°C° 0 mm 2 mps 685 mmHg 89%

    Tomorrow, 22 February, Friday

    Time Temperature Precipitation Wind Pressure Humidity
    00:00 -2°C° 0.3 mm 2 mps 684 mmHg 89%
    01:00 -2°C° 0.3 mm 2 mps 684 mmHg 89%
    02:00 -1°C° 0.3 mm 2 mps 684 mmHg 89%
    03:00 -1°C° 0.5 mm 2 mps 683 mmHg 89%
    04:00 -1°C° 0.5 mm 2 mps 682 mmHg 90%
    05:00 -2°C° 0.5 mm 2 mps 682 mmHg 90%
    06:00 -2°C° 0.3 mm 2 mps 681 mmHg 90%
    07:00 -2°C° 0.3 mm 2 mps 681 mmHg 91%
    08:00 -1°C° 0.3 mm 2 mps 681 mmHg 91%
    09:00 -1°C° 0.6 mm 2 mps 681 mmHg 92%
    10:00 -1°C° 0.6 mm 2 mps 682 mmHg 92%
    11:00 -1°C° 0.6 mm 2 mps 682 mmHg 93%
    12:00 -2°C° 0.6 mm 2 mps 683 mmHg 93%
    13:00 -5°C° 0.6 mm 3 mps 683 mmHg 93%
    14:00 -6°C° 0.6 mm 3 mps 683 mmHg 92%
    15:00 -7°C° 0.2 mm 3 mps 684 mmHg 91%
    16:00 -9°C° 0.2 mm 4 mps 684 mmHg 90%
    17:00 -9°C° 0.2 mm 4 mps 685 mmHg 89%
    18:00 -10°C° 0.1 mm 4 mps 685 mmHg 89%
    19:00 -13°C° 0.1 mm 5 mps 686 mmHg 89%
    20:00 -14°C° 0.1 mm 5 mps 686 mmHg 89%
    21:00 -14°C° 0.1 mm 5 mps 687 mmHg 88%
    22:00 -15°C° 0.1 mm 5 mps 687 mmHg 87%
    23:00 -17°C° 0.1 mm 5 mps 688 mmHg 86%

    Day after tomorrow, 23 February, Saturday

    Time Temperature Precipitation Wind Pressure Humidity
    00:00 -17°C° 0.1 mm 5 mps 688 mmHg 87%
    01:00 -17°C° 0.1 mm 5 mps 689 mmHg 87%
    02:00 -16°C° 0.1 mm 4 mps 689 mmHg 88%
    03:00 -16°C° 0.1 mm 4 mps 689 mmHg 88%
    04:00 -17°C° 0.1 mm 4 mps 689 mmHg 88%
    05:00 -17°C° 0.1 mm 4 mps 689 mmHg 89%
    06:00 -17°C° 0.1 mm 4 mps 690 mmHg 89%
    07:00 -17°C° 0.1 mm 4 mps 690 mmHg 89%
    08:00 -16°C° 0.1 mm 3 mps 691 mmHg 89%
    09:00 -15°C° 0.1 mm 3 mps 691 mmHg 86%
    10:00 -14°C° 0.1 mm 3 mps 692 mmHg 84%
    11:00 -14°C° 0.1 mm 3 mps 692 mmHg 81%
    12:00 -13°C° 0 mm 3 mps 692 mmHg 80%
    13:00 -13°C° 0 mm 3 mps 692 mmHg 79%
    14:00 -12°C° 0 mm 3 mps 692 mmHg 78%
    15:00 -12°C° 0 mm 3 mps 692 mmHg 79%
    16:00 -13°C° 0 mm 3 mps 692 mmHg 81%
    17:00 -13°C° 0 mm 3 mps 691 mmHg 83%
    18:00 -13°C° 0 mm 2 mps 692 mmHg 86%
    19:00 -14°C° 0 mm 2 mps 692 mmHg 90%
    20:00 -13°C° 0 mm 1 mps 692 mmHg 94%
    21:00 -13°C° 0 mm 1 mps 692 mmHg 94%
    22:00 -13°C° 0 mm 1 mps 692 mmHg 94%
    23:00 -13°C° 0 mm 1 mps 692 mmHg 94%

    24 February, Sunday

    Time Temperature Precipitation Wind Pressure Humidity
    00:00 -14°C° 0 mm 1 mps 692 mmHg 94%
    01:00 -14°C° 0 mm 1 mps 692 mmHg 94%
    02:00 -15°C° 0 mm 1 mps 691 mmHg 94%
    03:00 -15°C° 0 mm 1 mps 691 mmHg 90%
    04:00 -15°C° 0 mm 1 mps 691 mmHg 87%
    05:00 -15°C° 0 mm 1 mps 691 mmHg 83%
    06:00 -14°C° 0 mm 1 mps 691 mmHg 80%
    07:00 -14°C° 0 mm 1 mps 691 mmHg 76%
    08:00 -14°C° 0 mm 1 mps 691 mmHg 73%
    09:00 -11°C° 0 mm 1 mps 692 mmHg 67%
    10:00 -9°C° 0 mm 1 mps 692 mmHg 61%
    11:00 -8°C° 0 mm 2 mps 692 mmHg 55%
    12:00 -7°C° 0 mm 2 mps 692 mmHg 55%
    13:00 -6°C° 0 mm 2 mps 692 mmHg 56%
    14:00 -5°C° 0 mm 2 mps 692 mmHg 57%
    15:00 -3°C° 0 mm 1 mps 691 mmHg 62%
    16:00 -3°C° 0 mm 1 mps 691 mmHg 67%
    17:00 -3°C° 0 mm 1 mps 691 mmHg 72%
    18:00 -4°C° 0.1 mm 1 mps 691 mmHg 78%
    19:00 -4°C° 0.1 mm 1 mps 690 mmHg 83%
    20:00 -6°C° 0.1 mm 1 mps 690 mmHg 88%
    21:00 -6°C° 0 mm 1 mps 690 mmHg 89%
    22:00 -6°C° 0 mm 1 mps 690 mmHg 89%
    23:00 -6°C° 0 mm 1 mps 690 mmHg 89%

    25 February, Monday

    Time Temperature Precipitation Wind Pressure Humidity
    00:00 -6°C° 0 mm 1 mps 689 mmHg 89%
    01:00 -6°C° 0 mm 1 mps 689 mmHg 89%
    02:00 -6°C° 0 mm 1 mps 688 mmHg 89%
    03:00 -6°C° 0 mm 1 mps 688 mmHg 89%
    04:00 -6°C° 0 mm 1 mps 688 mmHg 88%
    05:00 -6°C° 0 mm 1 mps 687 mmHg 87%
    06:00 -6°C° 0.2 mm 1 mps 687 mmHg 88%
    07:00 -4°C° 0.2 mm 1 mps 687 mmHg 89%
    08:00 -4°C° 0.2 mm 1 mps 687 mmHg 90%
    09:00 -3°C° 0.3 mm 1 mps 687 mmHg 90%
    10:00 -2°C° 0.3 mm 1 mps 687 mmHg 90%
    11:00 -2°C° 0.3 mm 1 mps 687 mmHg 90%
    12:00 -3°C° 0.6 mm 2 mps 687 mmHg 90%
    13:00 -2°C° 0.6 mm 2 mps 687 mmHg 91%
    14:00 -2°C° 0.6 mm 3 mps 687 mmHg 91%
    15:00 -2°C° 0.1 mm 3 mps 687 mmHg 90%
    16:00 -4°C° 0.1 mm 4 mps 687 mmHg 90%
    17:00 -4°C° 0.1 mm 4 mps 686 mmHg 89%
    18:00 -5°C° 0.1 mm 4 mps 687 mmHg 90%
    19:00 -5°C° 0.1 mm 4 mps 687 mmHg 91%
    20:00 -7°C° 0.1 mm 4 mps 688 mmHg 93%
    21:00 -7°C° 0.1 mm 4 mps 688 mmHg 93%
    22:00 -7°C° 0.1 mm 4 mps 688 mmHg 93%
    23:00 -7°C° 0.1 mm 4 mps 688 mmHg 93%

    26 February, Tuesday

    Time Temperature Precipitation Wind Pressure Humidity
    00:00 -7°C° 0 mm 3 mps 688 mmHg 93%
    01:00 -7°C° 0 mm 3 mps 688 mmHg 94%
    02:00 -6°C° 0 mm 2 mps 688 mmHg 95%
    03:00 -7°C° 0 mm 2 mps 687 mmHg 95%
    04:00 -7°C° 0 mm 2 mps 687 mmHg 95%
    05:00 -7°C° 0 mm 1 mps 686 mmHg 96%
    06:00 -6°C° 0 mm 1 mps 686 mmHg 94%
    07:00 -6°C° 0 mm 1 mps 686 mmHg 93%
    08:00 -6°C° 0 mm 1 mps 686 mmHg 91%
    09:00 -4°C° 0 mm 2 mps 686 mmHg 84%
    10:00 -2°C° 0 mm 3 mps 686 mmHg 77%
    11:00 -1°C° 0 mm 4 mps 686 mmHg 70%
    12:00 -1°C° 0 mm 4 mps 685 mmHg 72%
    13:00 0°C° 0 mm 4 mps 685 mmHg 74%
    14:00 0°C° 0 mm 4 mps 684 mmHg 76%
    15:00 +1°C° 0 mm 3 mps 684 mmHg 79%
    16:00 0°C° 0 mm 3 mps 683 mmHg 83%
    17:00 -1°C° 0 mm 2 mps 683 mmHg 86%
    18:00 -2°C° 0 mm 2 mps 682 mmHg 89%
    19:00 -3°C° 0 mm 2 mps 682 mmHg 92%
    20:00 -4°C° 0 mm 2 mps 682 mmHg 95%
    21:00 -4°C° 0 mm 2 mps 681 mmHg 94%
    22:00 -4°C° 0 mm 2 mps 680 mmHg 93%
    23:00 -4°C° 0 mm 2 mps 680 mmHg 93%
    Show more